Regional Weather Roundup
Issued by NWS

Home | Current Version | Previous Version | Text Only | Print | Product List | Glossary On
Versions: 1 2 3 4 5 6 7 8 9 10 11 12 13 14 15 16 17 18 19 20 21 22 23 24 25 26 27 28 29 30 31 32 33 34 35 36 37 38 39 40 41 42 43 44 45 46 47 48 49 50
000
ASUS46 KPQR 281610
RWROR

OREGON REGIONAL WEATHER ROUNDUP
NATIONAL WEATHER SERVICE PORTLAND OR
900 AM PDT SAT MAR 28 2015

NOTE: "FAIR" INDICATES FEW OR NO CLOUDS BELOW 12,000 FEET WITH
NO SIGNIFICANT WEATHER AND/OR OBSTRUCTIONS TO VISIBILITY.

ORZ001>013-281700-
NORTHWEST OREGON


CITY           SKY/WX    TMP DP  RH WIND       PRES   REMARKS
ASTORIA        PTSUNNY   53  48  83 SW9       30.33R
NEWPORT        CLOUDY    50  46  87 S3        30.42S
PORTLAND       PTSUNNY   52  46  80 S9        30.38R
VANCOUVER WA   PTSUNNY   51  44  77 SW5       30.38R
SCAPPOOSE      PTSUNNY   49  47  93 CALM      30.37R
HILLSBORO      MOSUNNY   51  45  79 S5        30.37R
AURORA         MOSUNNY   51  45  79 SW13      30.40R
MCMINNVILLE    PTSUNNY   50  46  86 S9        30.39R
SALEM          PTSUNNY   51  46  83 S12       30.40R
CORVALLIS      PTSUNNY   50  46  87 S5        30.42R
EUGENE         PTSUNNY   50  46  86 S9        30.43R
$$

ORZ021-028-281700-
SOUTHWEST OREGON


CITY           SKY/WX    TMP DP  RH WIND       PRES   REMARKS
NORTH BEND     CLOUDY    48  48 100 SE7       30.43F
BROOKINGS      MOSUNNY   47  47 100 CALM      30.40R
ROSEBURG       PTSUNNY   47  42  83 CALM      30.44R
SEXTON SUMMIT  PTSUNNY   40  36  86 E3        30.36R
MEDFORD        SUNNY     45  39  79 N5        30.41R
$$

ORZ014>016-041-281700-
COLUMBIA GORGE


CITY           SKY/WX    TMP DP  RH WIND       PRES   REMARKS
TROUTDALE      MOSUNNY   53  45  74 SW12      30.37R
THE DALLES     CLOUDY    55  43  63 NW7       30.29R
$$

ORZ029>031-041-044-049-050-061>064-502-503-505>511-281700-
EASTERN OREGON


CITY           SKY/WX    TMP DP  RH WIND       PRES   REMARKS
REDMOND        SUNNY     44  29  55 VRB3      30.32R
BEND           SUNNY     43  28  56 SW12      30.31R
PRINEVILLE     SUNNY     45  30  57 SW7       30.32R
KLAMATH FALLS  SUNNY     38  30  73 E3        30.37R
LAKEVIEW       SUNNY     39  27  60 SE3       30.36R
HERMISTON      SUNNY     54  39  57 SW17G28   30.25R
PENDLETON      SUNNY     51  37  58 W25       30.25R
JOHN DAY       SUNNY     45  34  66 W6        30.29R
MEACHAM        SUNNY     42  34  73 VRB3      30.24R
LA GRANDE      MOSUNNY   46  30  53 CALM      30.24R
BAKER CITY     SUNNY     47  30  51 NW21G26   30.23R
BURNS          SUNNY     43  28  55 W13       30.31R
ROME             N/A     49  17  28 NW5       30.30R
ONTARIO        SUNNY     54  33  45 W21       30.26R
$$



USA.gov is the U.S. government's official web portal to all federal, state and local government web resources and services.